M I D A S
Marine Information and Data Acquisition System
Tripno 1495 of the Zeeleeuw from 2008-05-29 08:08:25 to 2008-05-29 13:25:32
Back to CruiseResearch ActivitiesStationsMapUnderway DataData graphs

EquipmentUnitsComments
TimeDGPSUTC
LatitudeDGPSDM.mWGS84
LongitudeDGPSDM.mWGS84
SpeedMeteo Stationm/sRelative wind speed
DirectionMeteo StationdegRelative wind direction
TemperatureMeteo Stationdeg CelciusAir temperature
PressureMeteo StationPaAtmospheric pressure
HumidityMeteo Station%Relative humidity
Missing or incorrect values are displayed as -999
Metereological data collected by the RV Zeeleeuw from 2008-05-29 08:10:42 to 2008-05-29 13:32:13
                                                                                    Next 1000 lines
Time Latitude Longitude Speed Direction Temperature Pressure Humidity
2008-05-29 08:10:52 51°13.624 2°56.046 2.7 256 15.9 101280 84
2008-05-29 08:10:57 51°13.624 2°56.044 2.4 309 15.9 101280 84
2008-05-29 08:11:03 51°13.625 2°56.04 2.1 20 15.9 101280 84
2008-05-29 08:11:08 51°13.627 2°56.037 3.2 298 15.9 101280 84
2008-05-29 08:11:13 51°13.628 2°56.033 3 266 15.9 101280 84
2008-05-29 08:11:18 51°13.63 2°56.028 2.8 307 15.9 101280 84
2008-05-29 08:11:23 51°13.631 2°56.023 4.3 266 15.9 101280 84
2008-05-29 08:11:28 51°13.633 2°56.018 4.4 302 15.9 101280 84
2008-05-29 08:11:33 51°13.635 2°56.012 3.4 260 15.9 101280 84
2008-05-29 08:11:38 51°13.638 2°56.005 6.5 304 15.9 101280 84
2008-05-29 08:11:43 51°13.64 2°55.998 4.7 269 15.9 101280 84
2008-05-29 08:11:48 51°13.643 2°55.99 4.3 15 15.9 101280 84
2008-05-29 08:11:53 51°13.646 2°55.983 4.9 270 15.9 101280 84
2008-05-29 08:11:58 51°13.648 2°55.974 4.1 313 15.9 101280 84
2008-05-29 08:12:03 51°13.651 2°55.966 3.2 29 15.9 101280 83
2008-05-29 08:12:08 51°13.654 2°55.957 3.3 308 15.9 101280 83
2008-05-29 08:12:13 51°13.657 2°55.948 3.7 264 15.9 101280 83
2008-05-29 08:12:18 51°13.66 2°55.939 4.1 60 15.9 101280 83
2008-05-29 08:12:23 51°13.663 2°55.929 3.6 29 15.9 101280 83
2008-05-29 08:12:28 51°13.667 2°55.92 4.2 54 15.9 101280 83
2008-05-29 08:12:33 51°13.669 2°55.91 4.8 23 15.9 101280 83
2008-05-29 08:12:38 51°13.672 2°55.9 3.6 52 15.9 101280 83
2008-05-29 08:12:43 51°13.675 2°55.89 3.8 27 15.9 101270 83
2008-05-29 08:12:48 51°13.678 2°55.881 3.7 309 15.9 101270 83
2008-05-29 08:12:53 51°13.68 2°55.871 3.7 27 15.9 101280 83
2008-05-29 08:12:58 51°13.683 2°55.861 4.4 303 15.9 101280 83
2008-05-29 08:13:03 51°13.685 2°55.852 5.1 268 16 101280 83
2008-05-29 08:13:08 51°13.686 2°55.843 8.5 304 16 101280 83
2008-05-29 08:13:13 51°13.688 2°55.834 6.7 255 15.9 101270 83
2008-05-29 08:13:18 51°13.69 2°55.825 4.8 303 15.9 101270 83
2008-05-29 08:13:23 51°13.691 2°55.817 5.7 260 16 101280 83
2008-05-29 08:13:28 51°13.692 2°55.809 8.3 308 16 101280 83
2008-05-29 08:13:33 51°13.693 2°55.801 5.1 248 15.9 101280 82
2008-05-29 08:13:38 51°13.694 2°55.794 6.1 308 15.9 101280 82
2008-05-29 08:13:43 51°13.695 2°55.787 6.1 257 15.9 101270 82
2008-05-29 08:13:48 51°13.695 2°55.781 6.7 305 15.9 101270 82
2008-05-29 08:13:53 51°13.696 2°55.776 4.2 263 15.9 101280 82
2008-05-29 08:13:57 51°13.696 2°55.772 5.3 309 15.9 101280 82
2008-05-29 08:14:02 51°13.696 2°55.768 4.9 27 15.9 101280 82
2008-05-29 08:14:08 51°13.697 2°55.763 4.3 307 15.9 101280 82
2008-05-29 08:14:13 51°13.697 2°55.76 4.2 26 15.9 101270 82
2008-05-29 08:14:18 51°13.697 2°55.758 3.7 308 15.9 101270 82
2008-05-29 08:14:23 51°13.697 2°55.756 3.3 21 15.9 101280 82
2008-05-29 08:14:28 51°13.697 2°55.755 4 304 15.9 101280 82
2008-05-29 08:14:33 51°13.697 2°55.754 5.2 27 15.9 101270 82
2008-05-29 08:14:38 51°13.698 2°55.753 4.6 303 15.9 101270 82
2008-05-29 08:14:43 51°13.698 2°55.753 3.7 26 16 101270 82
2008-05-29 08:14:48 51°13.698 2°55.754 3.6 308 16 101270 82
2008-05-29 08:14:53 51°13.699 2°55.755 3.6 27 16 101270 82
2008-05-29 08:14:58 51°13.7 2°55.756 3.5 303 16 101270 82
2008-05-29 08:15:02 51°13.701 2°55.757 3.8 321 16 101260 82
2008-05-29 08:15:07 51°13.702 2°55.759 3.3 303 16 101260 82
2008-05-29 08:15:12 51°13.703 2°55.76 2.7 322 16 101270 82
2008-05-29 08:15:17 51°13.704 2°55.761 4.8 305 16 101270 82
2008-05-29 08:15:22 51°13.705 2°55.762 7.1 318 16 101270 82
2008-05-29 08:15:27 51°13.705 2°55.762 4.8 324 16 101270 82
2008-05-29 08:15:32 51°13.705 2°55.762 3.4 330 16 101270 82
2008-05-29 08:15:37 51°13.704 2°55.761 2.4 351 16 101270 82
2008-05-29 08:15:42 51°13.703 2°55.759 2 325 16 101270 82
2008-05-29 08:15:48 51°13.701 2°55.757 3.9 328 16 101270 82
2008-05-29 08:15:53 51°13.699 2°55.755 2.7 332 16 101270 82
2008-05-29 08:15:58 51°13.697 2°55.753 2.5 350 16 101270 82
2008-05-29 08:16:03 51°13.696 2°55.752 2.8 338 16 101270 82
2008-05-29 08:16:08 51°13.695 2°55.751 3.2 328 16 101270 82
2008-05-29 08:16:13 51°13.696 2°55.75 2.8 351 16 101270 82
2008-05-29 08:16:18 51°13.697 2°55.75 3.4 347 16 101270 82
2008-05-29 08:16:23 51°13.698 2°55.75 5.6 351 16.1 101270 82
2008-05-29 08:16:28 51°13.701 2°55.75 6.8 346 16.1 101270 82
2008-05-29 08:16:33 51°13.705 2°55.749 7.5 348 16.1 101270 82
2008-05-29 08:16:38 51°13.71 2°55.746 6.8 354 16.1 101270 82
2008-05-29 08:16:42 51°13.714 2°55.744 7 353 16.1 101270 82
2008-05-29 08:16:47 51°13.72 2°55.74 5 1 16.1 101270 82
2008-05-29 08:16:53 51°13.728 2°55.733 6.1 346 16.1 101270 82
2008-05-29 08:16:58 51°13.736 2°55.727 5.1 346 16.1 101270 82
2008-05-29 08:17:02 51°13.742 2°55.721 3.9 342 16 101260 81
2008-05-29 08:17:07 51°13.75 2°55.713 7.5 351 16 101260 81
2008-05-29 08:17:12 51°13.757 2°55.705 7.2 346 16 101260 81
2008-05-29 08:17:17 51°13.765 2°55.697 5.5 349 16 101260 81
2008-05-29 08:17:22 51°13.773 2°55.689 6.7 345 16 101260 82
2008-05-29 08:17:27 51°13.78 2°55.681 7.1 352 16 101260 82
2008-05-29 08:17:31 51°13.786 2°55.674 5.5 353 16.1 101270 82
2008-05-29 08:17:36 51°13.794 2°55.667 4.3 349 16.1 101270 82
2008-05-29 08:17:41 51°13.802 2°55.659 7.2 347 16.1 101260 82
2008-05-29 08:17:46 51°13.809 2°55.652 7.1 345 16.1 101260 82
2008-05-29 08:17:51 51°13.817 2°55.645 6.6 350 16 101270 82
2008-05-29 08:17:56 51°13.825 2°55.639 7.1 350 16 101270 82
2008-05-29 08:18:01 51°13.833 2°55.632 8.7 350 16 101270 82
2008-05-29 08:18:05 51°13.839 2°55.627 9.7 346 16 101270 82
2008-05-29 08:18:10 51°13.847 2°55.621 8.3 352 16 101260 82
2008-05-29 08:18:15 51°13.854 2°55.614 8.6 352 16 101260 82
2008-05-29 08:18:20 51°13.862 2°55.608 9.4 351 16 101260 82
2008-05-29 08:18:25 51°13.87 2°55.603 8.7 348 16 101260 82
2008-05-29 08:18:30 51°13.878 2°55.597 7.5 352 16 101260 82
2008-05-29 08:18:34 51°13.884 2°55.593 7.6 346 16 101260 82
2008-05-29 08:18:39 51°13.892 2°55.587 8.2 349 16 101260 81
2008-05-29 08:18:45 51°13.902 2°55.581 7 351 16 101260 81
2008-05-29 08:18:49 51°13.908 2°55.577 9.5 348 16 101260 81
2008-05-29 08:18:54 51°13.916 2°55.572 7.9 352 16 101260 81
2008-05-29 08:18:59 51°13.924 2°55.567 8.7 348 16 101260 81
2008-05-29 08:19:05 51°13.933 2°55.561 7.5 349 16 101260 81
2008-05-29 08:19:09 51°13.94 2°55.557 7.9 348 16 101260 81
2008-05-29 08:19:14 51°13.947 2°55.553 7.6 352 16 101260 81
2008-05-29 08:19:19 51°13.955 2°55.548 8.4 354 16 101260 82
2008-05-29 08:19:25 51°13.965 2°55.541 8.1 354 16 101260 82
2008-05-29 08:19:29 51°13.971 2°55.537 8.4 355 16 101260 82
2008-05-29 08:19:34 51°13.978 2°55.532 7.3 349 16 101260 82
2008-05-29 08:19:39 51°13.986 2°55.527 5.6 337 16 101260 82
2008-05-29 08:19:45 51°13.994 2°55.521 6.2 346 16 101260 82
2008-05-29 08:19:49 51°14 2°55.517 6.2 354 16 101260 82
2008-05-29 08:19:54 51°14.007 2°55.512 7.4 353 16 101260 82
2008-05-29 08:19:59 51°14.013 2°55.508 7 351 16 101260 83
2008-05-29 08:20:05 51°14.021 2°55.502 6.9 346 16 101260 83
2008-05-29 08:20:09 51°14.026 2°55.499 6.1 350 16 101260 83
2008-05-29 08:20:14 51°14.032 2°55.494 6.9 348 16 101260 83
2008-05-29 08:20:19 51°14.038 2°55.49 7.3 357 16 101260 83
2008-05-29 08:20:25 51°14.046 2°55.486 6.5 351 16 101260 83
2008-05-29 08:20:29 51°14.05 2°55.483 7.2 349 16 101260 83
2008-05-29 08:20:34 51°14.056 2°55.479 7.2 353 16 101260 83
2008-05-29 08:20:39 51°14.062 2°55.475 5.3 351 16 101260 83
2008-05-29 08:20:45 51°14.068 2°55.47 6.9 354 16 101260 83
2008-05-29 08:20:50 51°14.074 2°55.466 5.3 352 16 101260 83
2008-05-29 08:20:55 51°14.08 2°55.462 6.4 351 16 101260 83
2008-05-29 08:21:00 51°14.085 2°55.459 7.1 351 16 101260 83
2008-05-29 08:21:05 51°14.091 2°55.455 9.5 356 16 101260 83
2008-05-29 08:21:10 51°14.096 2°55.451 8.7 356 16 101260 83
2008-05-29 08:21:15 51°14.101 2°55.447 8.7 358 16 101260 83
2008-05-29 08:21:20 51°14.106 2°55.443 8 -999 15.9 101260 83
2008-05-29 08:21:25 51°14.111 2°55.439 6.2 354 15.9 101260 83
2008-05-29 08:21:30 51°14.116 2°55.435 5.3 351 15.9 101260 83
2008-05-29 08:21:35 51°14.121 2°55.432 6.9 356 15.9 101260 83
2008-05-29 08:21:41 51°14.127 2°55.427 7 351 15.9 101260 82
2008-05-29 08:21:46 51°14.132 2°55.424 5.1 353 15.9 101260 82
2008-05-29 08:21:52 51°14.139 2°55.419 5.5 351 15.9 101260 82
2008-05-29 08:21:58 51°14.146 2°55.413 6.6 357 15.9 101260 82
2008-05-29 08:22:03 51°14.153 2°55.409 5.5 354 15.9 101260 83
2008-05-29 08:22:08 51°14.16 2°55.404 8.1 351 15.9 101260 83
2008-05-29 08:22:13 51°14.167 2°55.398 8.7 353 15.9 101260 83
2008-05-29 08:22:17 51°14.173 2°55.393 8.1 351 15.9 101260 83
2008-05-29 08:22:22 51°14.181 2°55.387 7.2 351 15.9 101260 84
2008-05-29 08:22:28 51°14.19 2°55.38 8.3 351 15.9 101260 84
2008-05-29 08:22:33 51°14.197 2°55.374 8.3 355 15.9 101260 84
2008-05-29 08:22:37 51°14.203 2°55.369 9.9 351 15.9 101260 84
2008-05-29 08:22:42 51°14.211 2°55.363 8.9 355 15.9 101260 84
2008-05-29 08:22:48 51°14.219 2°55.355 9 357 15.9 101260 84
2008-05-29 08:22:52 51°14.224 2°55.349 8.9 357 15.9 101260 84
2008-05-29 08:22:57 51°14.231 2°55.341 9.4 358 15.9 101260 84
2008-05-29 08:23:02 51°14.236 2°55.333 7.4 4 15.9 101260 84
2008-05-29 08:23:07 51°14.242 2°55.324 8.7 7 15.9 101260 84
2008-05-29 08:23:12 51°14.247 2°55.315 8.9 8 15.9 101260 84
2008-05-29 08:23:17 51°14.253 2°55.305 7.8 4 15.9 101260 84
2008-05-29 08:23:21 51°14.257 2°55.297 7.8 7 15.9 101250 84
2008-05-29 08:23:26 51°14.262 2°55.286 8.4 7 15.9 101250 84
2008-05-29 08:23:31 51°14.268 2°55.274 7.6 5 15.8 101250 84
2008-05-29 08:23:36 51°14.274 2°55.262 7.5 6 15.8 101250 84
2008-05-29 08:23:41 51°14.28 2°55.248 7.9 6 15.8 101250 84
2008-05-29 08:23:46 51°14.286 2°55.234 7.6 7 15.8 101250 84
2008-05-29 08:23:52 51°14.293 2°55.216 6.5 6 15.8 101250 83
2008-05-29 08:23:57 51°14.3 2°55.201 6.1 4 15.8 101250 83
2008-05-29 08:24:02 51°14.306 2°55.186 6.6 3 15.8 101250 84
2008-05-29 08:24:07 51°14.313 2°55.17 7.9 360 15.8 101250 84
2008-05-29 08:24:11 51°14.319 2°55.157 8.3 4 15.8 101250 83
2008-05-29 08:24:16 51°14.325 2°55.14 7.6 6 15.8 101250 83
2008-05-29 08:24:21 51°14.332 2°55.122 7.8 6 15.8 101260 84
2008-05-29 08:24:26 51°14.339 2°55.103 7.9 6 15.8 101260 84
2008-05-29 08:24:31 51°14.345 2°55.083 8 8 15.8 101250 84
2008-05-29 08:24:36 51°14.351 2°55.062 7.6 -999 15.8 101250 84
2008-05-29 08:24:41 51°14.358 2°55.041 7.4 3 15.8 101250 84
2008-05-29 08:24:45 51°14.363 2°55.024 7.4 4 15.8 101250 84
2008-05-29 08:24:50 51°14.37 2°55.002 7.3 7 15.8 101250 84
2008-05-29 08:24:55 51°14.377 2°54.98 8.2 4 15.8 101250 84
2008-05-29 08:25:00 51°14.384 2°54.958 8.2 3 15.8 101250 84
2008-05-29 08:25:05 51°14.391 2°54.936 7.4 5 15.8 101250 84
2008-05-29 08:25:10 51°14.398 2°54.913 8 3 15.8 101260 84
2008-05-29 08:25:14 51°14.403 2°54.895 7.9 4 15.8 101260 84
2008-05-29 08:25:19 51°14.41 2°54.871 7.4 2 15.8 101250 84
2008-05-29 08:25:24 51°14.418 2°54.848 7.6 1 15.8 101250 84
2008-05-29 08:25:29 51°14.425 2°54.824 8 3 15.8 101250 84
2008-05-29 08:25:34 51°14.433 2°54.801 7.5 2 15.8 101250 84
2008-05-29 08:25:39 51°14.441 2°54.778 7.7 5 15.8 101260 84
2008-05-29 08:25:45 51°14.452 2°54.751 8.5 2 15.8 101260 84
2008-05-29 08:25:49 51°14.457 2°54.732 8.4 2 15.8 101260 85
2008-05-29 08:25:54 51°14.466 2°54.71 7.8 359 15.8 101260 85
2008-05-29 08:25:59 51°14.474 2°54.687 8.8 1 15.8 101250 85
2008-05-29 08:26:04 51°14.482 2°54.664 8.8 2 15.8 101250 85
2008-05-29 08:26:09 51°14.49 2°54.64 7.9 4 15.8 101250 85
2008-05-29 08:26:14 51°14.498 2°54.618 7.8 5 15.8 101250 85
2008-05-29 08:26:19 51°14.506 2°54.595 8.9 4 15.8 101250 85
2008-05-29 08:26:24 51°14.515 2°54.572 8.2 360 15.8 101250 85
2008-05-29 08:26:29 51°14.522 2°54.549 8.5 4 15.8 101250 85
2008-05-29 08:26:34 51°14.53 2°54.525 8.5 7 15.8 101250 85
2008-05-29 08:26:39 51°14.538 2°54.501 7.8 6 15.8 101250 85
2008-05-29 08:26:44 51°14.545 2°54.477 7.5 3 15.8 101250 85
2008-05-29 08:26:49 51°14.553 2°54.454 7.7 4 15.8 101250 85
2008-05-29 08:26:54 51°14.561 2°54.43 8.7 6 15.8 101250 85
2008-05-29 08:26:59 51°14.569 2°54.405 8.4 5 15.7 101250 85
2008-05-29 08:27:05 51°14.578 2°54.377 7.6 5 15.7 101250 85
2008-05-29 08:27:09 51°14.584 2°54.358 7.9 7 15.8 101250 85
2008-05-29 08:27:14 51°14.592 2°54.334 7.8 1 15.8 101250 85
2008-05-29 08:27:19 51°14.599 2°54.31 8.9 1 15.7 101250 85
2008-05-29 08:27:25 51°14.609 2°54.282 7.8 3 15.7 101250 85
2008-05-29 08:27:29 51°14.615 2°54.262 7.5 -999 15.8 101260 85
2008-05-29 08:27:34 51°14.622 2°54.238 8.3 4 15.8 101260 85
2008-05-29 08:27:39 51°14.63 2°54.214 7.6 5 15.7 101250 85
2008-05-29 08:27:45 51°14.639 2°54.186 7.4 5 15.7 101250 85
2008-05-29 08:27:49 51°14.645 2°54.166 6.9 6 15.8 101250 86
2008-05-29 08:27:54 51°14.651 2°54.141 7.3 10 15.8 101250 86
2008-05-29 08:27:59 51°14.657 2°54.116 8.5 10 15.8 101250 86
2008-05-29 08:28:05 51°14.664 2°54.086 7.2 9 15.8 101250 86
2008-05-29 08:28:09 51°14.667 2°54.065 8.5 9 15.7 101250 85
2008-05-29 08:28:14 51°14.672 2°54.039 7.6 8 15.7 101250 85
2008-05-29 08:28:19 51°14.677 2°54.013 8.3 9 15.7 101250 85
2008-05-29 08:28:24 51°14.681 2°53.987 8.2 10 15.7 101250 85
2008-05-29 08:28:29 51°14.685 2°53.961 5.6 4 15.7 101250 85
2008-05-29 08:28:34 51°14.689 2°53.935 7.1 8 15.7 101250 85
2008-05-29 08:28:39 51°14.694 2°53.909 9.5 11 15.7 101250 85
2008-05-29 08:28:44 51°14.698 2°53.883 7.4 18 15.7 101250 85
2008-05-29 08:28:49 51°14.702 2°53.857 7.6 14 15.7 101250 85
2008-05-29 08:28:54 51°14.706 2°53.831 7.2 6 15.7 101250 85
2008-05-29 08:28:59 51°14.71 2°53.805 8.3 9 15.7 101260 85
2008-05-29 08:29:04 51°14.715 2°53.78 7.9 11 15.7 101260 85
2008-05-29 08:29:09 51°14.719 2°53.754 7.6 8 15.7 101250 85
2008-05-29 08:29:14 51°14.724 2°53.729 7.1 5 15.7 101250 85
2008-05-29 08:29:19 51°14.729 2°53.703 7.4 7 15.7 101260 85
2008-05-29 08:29:25 51°14.736 2°53.672 8.6 9 15.7 101260 85
2008-05-29 08:29:29 51°14.739 2°53.652 7.1 7 15.7 101260 85
2008-05-29 08:29:34 51°14.745 2°53.626 7 6 15.7 101260 85
2008-05-29 08:29:39 51°14.749 2°53.6 5.8 6 15.7 101250 85
2008-05-29 08:29:45 51°14.755 2°53.57 7.1 6 15.7 101250 85
2008-05-29 08:29:49 51°14.759 2°53.549 7 8 15.7 101260 85
2008-05-29 08:29:54 51°14.764 2°53.523 6.2 7 15.7 101260 85
2008-05-29 08:29:59 51°14.769 2°53.497 8.2 8 15.7 101260 85
2008-05-29 08:30:05 51°14.774 2°53.466 6.9 7 15.7 101260 85
2008-05-29 08:30:09 51°14.778 2°53.445 7.5 8 15.8 101260 85
2008-05-29 08:30:14 51°14.783 2°53.419 8.7 13 15.8 101260 85
2008-05-29 08:30:19 51°14.787 2°53.393 7.2 8 15.7 101260 86
2008-05-29 08:30:25 51°14.793 2°53.361 6.2 6 15.7 101260 86
2008-05-29 08:30:29 51°14.796 2°53.34 6 6 15.7 101250 85
2008-05-29 08:30:34 51°14.8 2°53.314 5.8 7 15.7 101250 85
2008-05-29 08:30:39 51°14.805 2°53.288 6.7 3 15.7 101260 85
2008-05-29 08:30:45 51°14.81 2°53.257 6.3 5 15.7 101260 85
2008-05-29 08:30:49 51°14.814 2°53.236 7.6 7 15.7 101260 85
2008-05-29 08:30:54 51°14.818 2°53.21 6.4 3 15.7 101260 85
2008-05-29 08:31:00 51°14.824 2°53.179 6.7 7 15.8 101260 86
2008-05-29 08:31:04 51°14.828 2°53.158 6.8 4 15.8 101260 86
2008-05-29 08:31:09 51°14.833 2°53.132 8.6 7 15.8 101250 86
2008-05-29 08:31:14 51°14.838 2°53.106 5.6 7 15.8 101250 86
2008-05-29 08:31:19 51°14.842 2°53.079 7 8 15.8 101250 86
2008-05-29 08:31:24 51°14.847 2°53.054 8.6 12 15.8 101250 86
2008-05-29 08:31:29 51°14.85 2°53.027 7.9 8 15.8 101250 86
2008-05-29 08:31:34 51°14.854 2°53 6.1 6 15.8 101250 86
2008-05-29 08:31:40 51°14.859 2°52.968 6.6 7 15.8 101260 86
2008-05-29 08:31:44 51°14.861 2°52.947 7.8 8 15.8 101260 86
2008-05-29 08:31:49 51°14.864 2°52.92 9 10 15.8 101250 86
2008-05-29 08:31:54 51°14.868 2°52.893 7.4 8 15.8 101250 86
2008-05-29 08:31:59 51°14.87 2°52.866 7.8 11 15.7 101260 86
2008-05-29 08:32:05 51°14.873 2°52.834 5.5 6 15.7 101260 86
2008-05-29 08:32:09 51°14.876 2°52.813 7.5 8 15.7 101250 86
2008-05-29 08:32:14 51°14.878 2°52.786 8.9 11 15.7 101250 86
2008-05-29 08:32:19 51°14.881 2°52.759 8.4 11 15.7 101250 85
2008-05-29 08:32:24 51°14.884 2°52.732 7.4 9 15.7 101250 85
2008-05-29 08:32:29 51°14.887 2°52.705 5.5 7 15.7 101260 85
2008-05-29 08:32:34 51°14.891 2°52.678 7.8 12 15.7 101260 85
2008-05-29 08:32:39 51°14.893 2°52.651 8.6 9 15.7 101250 85
2008-05-29 08:32:45 51°14.897 2°52.619 8.4 12 15.7 101250 85
2008-05-29 08:32:49 51°14.9 2°52.597 7.7 10 15.7 101250 86
2008-05-29 08:32:54 51°14.903 2°52.57 7.8 7 15.7 101250 86
2008-05-29 08:32:59 51°14.905 2°52.543 7.1 9 15.7 101250 85
2008-05-29 08:33:04 51°14.909 2°52.516 7.2 7 15.7 101250 85
2008-05-29 08:33:09 51°14.912 2°52.489 5.9 5 15.7 101250 85
2008-05-29 08:33:14 51°14.916 2°52.462 7.7 8 15.7 101250 85
2008-05-29 08:33:19 51°14.919 2°52.435 5.1 6 15.7 101260 85
2008-05-29 08:33:24 51°14.923 2°52.408 6.8 5 15.7 101260 85
2008-05-29 08:33:29 51°14.926 2°52.381 6.1 8 15.7 101250 85
2008-05-29 08:33:34 51°14.93 2°52.354 8 9 15.7 101250 85
2008-05-29 08:33:39 51°14.932 2°52.327 7.5 9 15.7 101260 86
2008-05-29 08:33:45 51°14.937 2°52.295 8.5 10 15.7 101260 86
2008-05-29 08:33:49 51°14.939 2°52.274 7.6 11 15.7 101250 86
2008-05-29 08:33:54 51°14.942 2°52.247 7.6 8 15.7 101250 86
2008-05-29 08:33:59 51°14.945 2°52.22 5.9 5 15.8 101250 86
2008-05-29 08:34:04 51°14.948 2°52.193 7.3 8 15.8 101250 86
2008-05-29 08:34:09 51°14.952 2°52.166 7.3 8 15.7 101250 85
2008-05-29 08:34:14 51°14.955 2°52.14 7.7 13 15.7 101250 85
2008-05-29 08:34:19 51°14.958 2°52.113 8 9 15.7 101250 85
2008-05-29 08:34:25 51°14.962 2°52.081 6.7 8 15.7 101250 85
2008-05-29 08:34:29 51°14.965 2°52.06 7.1 7 15.7 101250 86
2008-05-29 08:34:34 51°14.968 2°52.033 5.8 9 15.7 101250 86
2008-05-29 08:34:39 51°14.971 2°52.007 8.1 7 15.7 101250 86
2008-05-29 08:34:44 51°14.975 2°51.98 7.6 8 15.7 101250 86
2008-05-29 08:34:49 51°14.978 2°51.953 8 11 15.7 101250 86
2008-05-29 08:34:54 51°14.981 2°51.927 8.1 8 15.7 101250 86
2008-05-29 08:34:59 51°14.985 2°51.9 8.2 7 15.7 101250 86
2008-05-29 08:35:04 51°14.988 2°51.873 8 10 15.7 101250 86
2008-05-29 08:35:09 51°14.992 2°51.847 8.5 9 15.7 101240 86
2008-05-29 08:35:14 51°14.996 2°51.821 7.2 7 15.7 101240 86
2008-05-29 08:35:19 51°15 2°51.795 9.5 10 15.7 101250 86
2008-05-29 08:35:24 51°15.004 2°51.768 8.6 8 15.7 101250 86
2008-05-29 08:35:29 51°15.008 2°51.742 7.5 7 15.7 101250 86
2008-05-29 08:35:34 51°15.012 2°51.716 7.1 6 15.7 101250 86
2008-05-29 08:35:39 51°15.016 2°51.689 7.6 7 15.7 101250 86
2008-05-29 08:35:45 51°15.021 2°51.657 7.3 6 15.7 101250 86
2008-05-29 08:35:49 51°15.024 2°51.636 9.2 9 15.7 101240 85
2008-05-29 08:35:54 51°15.028 2°51.61 8.2 8 15.7 101240 85
2008-05-29 08:35:59 51°15.032 2°51.584 7.1 6 15.7 101250 86
2008-05-29 08:36:05 51°15.037 2°51.553 7.6 11 15.7 101250 86
2008-05-29 08:36:09 51°15.04 2°51.532 9.5 9 15.7 101240 85
2008-05-29 08:36:14 51°15.044 2°51.505 8 9 15.7 101240 85
2008-05-29 08:36:19 51°15.047 2°51.479 6.9 7 15.7 101250 85
2008-05-29 08:36:24 51°15.05 2°51.453 7.2 9 15.7 101250 85
2008-05-29 08:36:29 51°15.054 2°51.426 9.4 9 15.7 101250 85
2008-05-29 08:36:34 51°15.057 2°51.4 7.3 9 15.7 101250 85
2008-05-29 08:36:39 51°15.061 2°51.374 8.1 8 15.7 101250 85
2008-05-29 08:36:45 51°15.065 2°51.343 6.9 4 15.7 101250 85
2008-05-29 08:36:49 51°15.068 2°51.322 8.8 8 15.7 101240 85
2008-05-29 08:36:54 51°15.072 2°51.296 9.6 9 15.7 101240 85
2008-05-29 08:36:59 51°15.076 2°51.27 8.4 7 15.7 101250 85
2008-05-29 08:37:05 51°15.082 2°51.239 8.4 8 15.7 101250 85
2008-05-29 08:37:09 51°15.085 2°51.218 7.7 7 15.7 101250 85
2008-05-29 08:37:14 51°15.089 2°51.191 7.2 6 15.7 101250 85
2008-05-29 08:37:19 51°15.094 2°51.165 8.4 8 15.7 101240 85
2008-05-29 08:37:24 51°15.098 2°51.139 8.2 8 15.7 101240 85
2008-05-29 08:37:29 51°15.102 2°51.113 7.8 7 15.7 101240 85
2008-05-29 08:37:34 51°15.107 2°51.087 8.3 8 15.7 101240 85
2008-05-29 08:37:39 51°15.112 2°51.061 7 7 15.7 101240 85
2008-05-29 08:37:44 51°15.117 2°51.035 8.3 7 15.7 101240 85
2008-05-29 08:37:49 51°15.121 2°51.009 8.8 6 15.7 101240 85
2008-05-29 08:37:54 51°15.126 2°50.983 8.6 10 15.7 101240 85
2008-05-29 08:37:59 51°15.131 2°50.957 6.4 8 15.7 101250 85
2008-05-29 08:38:05 51°15.137 2°50.926 8.4 7 15.7 101250 85
2008-05-29 08:38:09 51°15.14 2°50.905 6.1 5 15.7 101250 86
2008-05-29 08:38:14 51°15.145 2°50.879 8 6 15.7 101250 86
2008-05-29 08:38:19 51°15.149 2°50.853 9.4 12 15.7 101250 85
2008-05-29 08:38:25 51°15.154 2°50.822 6.5 8 15.7 101250 85
2008-05-29 08:38:29 51°15.158 2°50.801 7.9 11 15.7 101250 86
2008-05-29 08:38:34 51°15.161 2°50.774 9.3 10 15.7 101250 86
2008-05-29 08:38:39 51°15.166 2°50.748 8.3 10 15.7 101240 86
2008-05-29 08:38:45 51°15.17 2°50.716 9.5 9 15.7 101240 86
2008-05-29 08:38:49 51°15.175 2°50.695 8.1 8 15.7 101250 85
2008-05-29 08:38:54 51°15.179 2°50.669 8.9 10 15.7 101250 85
2008-05-29 08:38:59 51°15.184 2°50.643 6.7 8 15.7 101250 85
2008-05-29 08:39:05 51°15.189 2°50.612 8.8 8 15.7 101250 85
2008-05-29 08:39:09 51°15.193 2°50.591 7.5 6 15.7 101240 85
2008-05-29 08:39:14 51°15.198 2°50.565 9.2 9 15.7 101240 85
2008-05-29 08:39:19 51°15.202 2°50.539 9.7 9 15.7 101250 85
2008-05-29 08:39:25 51°15.207 2°50.507 8.1 12 15.7 101250 85
2008-05-29 08:39:29 51°15.211 2°50.486 8 8 15.7 101240 85
2008-05-29 08:39:34 51°15.215 2°50.46 6.8 7 15.7 101240 85
2008-05-29 08:39:39 51°15.219 2°50.434 6.3 4 15.6 101250 85
2008-05-29 08:39:44 51°15.224 2°50.408 9.1 8 15.6 101250 85
2008-05-29 08:39:49 51°15.228 2°50.382 8.8 9 15.6 101250 85
2008-05-29 08:39:54 51°15.233 2°50.356 8 6 15.6 101250 85
2008-05-29 08:39:59 51°15.237 2°50.33 8.9 8 15.7 101250 85
2008-05-29 08:40:04 51°15.242 2°50.304 7.5 5 15.7 101250 85
2008-05-29 08:40:09 51°15.247 2°50.278 7.5 8 15.6 101240 85
2008-05-29 08:40:14 51°15.251 2°50.252 6.1 6 15.6 101240 85
2008-05-29 08:40:19 51°15.255 2°50.225 6.9 4 15.7 101240 85
2008-05-29 08:40:24 51°15.259 2°50.199 6.5 7 15.7 101240 85
2008-05-29 08:40:29 51°15.263 2°50.172 9 9 15.7 101240 85
2008-05-29 08:40:34 51°15.266 2°50.145 8.1 7 15.7 101240 85
2008-05-29 08:40:39 51°15.27 2°50.119 6 5 15.7 101250 85
2008-05-29 08:40:45 51°15.275 2°50.087 8.5 7 15.7 101250 85
2008-05-29 08:40:49 51°15.279 2°50.066 6.9 3 15.7 101240 86
2008-05-29 08:40:54 51°15.283 2°50.039 6.9 3 15.7 101240 86
2008-05-29 08:40:59 51°15.287 2°50.012 8.3 7 15.7 101240 85
2008-05-29 08:41:05 51°15.291 2°49.98 8 3 15.7 101240 85
2008-05-29 08:41:09 51°15.295 2°49.959 6.3 5 15.7 101250 85
2008-05-29 08:41:14 51°15.298 2°49.932 6.9 4 15.7 101250 85
2008-05-29 08:41:19 51°15.302 2°49.906 7.2 2 15.7 101240 86
2008-05-29 08:41:24 51°15.306 2°49.879 7.6 7 15.7 101240 86
2008-05-29 08:41:29 51°15.31 2°49.852 7 3 15.7 101240 85
2008-05-29 08:41:34 51°15.314 2°49.826 6.4 4 15.7 101240 85
2008-05-29 08:41:39 51°15.318 2°49.799 6.9 4 15.7 101240 86
2008-05-29 08:41:44 51°15.323 2°49.772 8.2 4 15.7 101240 86
2008-05-29 08:41:49 51°15.327 2°49.746 7.9 1 15.7 101240 86
2008-05-29 08:41:54 51°15.331 2°49.719 8.1 5 15.7 101240 86
2008-05-29 08:41:59 51°15.336 2°49.693 8.2 2 15.7 101240 86
2008-05-29 08:42:04 51°15.34 2°49.667 8.9 1 15.7 101240 86
2008-05-29 08:42:09 51°15.344 2°49.64 8 1 15.7 101240 86
2008-05-29 08:42:14 51°15.348 2°49.614 8.2 1 15.7 101240 86
2008-05-29 08:42:19 51°15.353 2°49.588 8.2 1 15.7 101240 85
2008-05-29 08:42:25 51°15.359 2°49.556 7.6 2 15.7 101240 85
2008-05-29 08:42:29 51°15.363 2°49.536 8.2 1 15.7 101240 86
2008-05-29 08:42:34 51°15.368 2°49.509 8.7 359 15.7 101240 86
2008-05-29 08:42:39 51°15.373 2°49.483 8.4 -999 15.6 101240 86
2008-05-29 08:42:44 51°15.378 2°49.457 8.6 2 15.6 101240 86
2008-05-29 08:42:49 51°15.384 2°49.431 8.7 -999 15.6 101230 86
2008-05-29 08:42:54 51°15.389 2°49.405 8.6 357 15.6 101230 86
2008-05-29 08:42:59 51°15.393 2°49.379 8 358 15.6 101240 86
2008-05-29 08:43:05 51°15.399 2°49.347 8.5 359 15.6 101240 86
2008-05-29 08:43:09 51°15.403 2°49.326 8.1 358 15.6 101240 86
2008-05-29 08:43:14 51°15.408 2°49.3 8.2 359 15.6 101240 86
2008-05-29 08:43:19 51°15.412 2°49.274 8.6 360 15.7 101240 86
2008-05-29 08:43:25 51°15.418 2°49.243 7.7 360 15.7 101240 86
2008-05-29 08:43:29 51°15.422 2°49.222 7.5 1 15.6 101240 86
2008-05-29 08:43:34 51°15.427 2°49.196 8.8 359 15.6 101240 86
2008-05-29 08:43:39 51°15.432 2°49.17 8.3 358 15.6 101240 86
2008-05-29 08:43:44 51°15.437 2°49.145 8.2 358 15.6 101240 86
2008-05-29 08:43:49 51°15.441 2°49.118 9.1 360 15.6 101240 86
2008-05-29 08:43:54 51°15.446 2°49.092 8.8 359 15.6 101240 86
2008-05-29 08:43:59 51°15.451 2°49.066 9 359 15.6 101240 87
2008-05-29 08:44:04 51°15.456 2°49.04 9.2 359 15.6 101240 87
2008-05-29 08:44:09 51°15.462 2°49.015 9.2 359 15.6 101240 87
2008-05-29 08:44:14 51°15.466 2°48.988 8.6 359 15.6 101240 87
2008-05-29 08:44:19 51°15.472 2°48.962 8.5 358 15.6 101240 87
2008-05-29 08:44:25 51°15.478 2°48.931 8.7 356 15.6 101240 87
2008-05-29 08:44:29 51°15.483 2°48.911 9 358 15.6 101240 87
2008-05-29 08:44:34 51°15.488 2°48.885 8.9 -999 15.6 101240 87
2008-05-29 08:44:39 51°15.493 2°48.859 8.4 3 15.6 101240 87
2008-05-29 08:44:45 51°15.5 2°48.828 7.8 360 15.6 101240 87
2008-05-29 08:44:49 51°15.504 2°48.807 9.3 -999 15.6 101240 87
2008-05-29 08:44:54 51°15.51 2°48.782 8.9 2 15.6 101240 87
2008-05-29 08:44:59 51°15.516 2°48.756 8.5 1 15.6 101240 87
2008-05-29 08:45:04 51°15.522 2°48.73 8.8 1 15.6 101240 87
2008-05-29 08:45:09 51°15.527 2°48.704 8.7 -999 15.6 101240 87
2008-05-29 08:45:14 51°15.533 2°48.678 8.2 2 15.6 101240 87
2008-05-29 08:45:19 51°15.538 2°48.652 9.6 360 15.6 101230 87
2008-05-29 08:45:24 51°15.544 2°48.626 8.3 -999 15.6 101230 87
2008-05-29 08:45:29 51°15.55 2°48.6 8.5 2 15.5 101240 87
2008-05-29 08:45:34 51°15.555 2°48.575 8.8 -999 15.5 101240 87
2008-05-29 08:45:39 51°15.561 2°48.549 8.3 359 15.5 101240 87
2008-05-29 08:45:45 51°15.568 2°48.517 9.1 359 15.5 101240 87
2008-05-29 08:45:49 51°15.572 2°48.496 9.3 358 15.5 101230 87
2008-05-29 08:45:54 51°15.577 2°48.47 8.2 359 15.5 101230 87
2008-05-29 08:45:59 51°15.583 2°48.444 8.1 359 15.5 101240 87
2008-05-29 08:46:04 51°15.588 2°48.418 8 358 15.5 101240 87
2008-05-29 08:46:09 51°15.594 2°48.392 8.7 359 15.5 101240 87
2008-05-29 08:46:14 51°15.599 2°48.366 8.3 2 15.5 101240 87
2008-05-29 08:46:19 51°15.605 2°48.339 9 360 15.5 101240 87
2008-05-29 08:46:25 51°15.611 2°48.308 8.7 357 15.5 101240 87
2008-05-29 08:46:29 51°15.616 2°48.288 8.8 1 15.5 101240 87
2008-05-29 08:46:34 51°15.621 2°48.261 7.7 358 15.5 101240 87
2008-05-29 08:46:39 51°15.626 2°48.235 8.5 -999 15.5 101240 87
2008-05-29 08:46:44 51°15.632 2°48.21 8.2 360 15.5 101240 87
2008-05-29 08:46:49 51°15.637 2°48.184 9.2 -999 15.5 101240 87
2008-05-29 08:46:54 51°15.642 2°48.158 8.9 2 15.5 101240 87
2008-05-29 08:46:59 51°15.648 2°48.132 8.6 2 15.5 101240 88
2008-05-29 08:47:05 51°15.655 2°48.101 8.1 358 15.5 101240 88
2008-05-29 08:47:09 51°15.659 2°48.081 8.2 357 15.5 101240 87
2008-05-29 08:47:14 51°15.665 2°48.055 8.4 1 15.5 101240 87
2008-05-29 08:47:20 51°15.671 2°48.024 8.5 359 15.5 101240 87
2008-05-29 08:47:25 51°15.677 2°47.998 8.5 360 15.5 101240 87
2008-05-29 08:47:29 51°15.681 2°47.978 7.8 2 15.5 101240 87
2008-05-29 08:47:34 51°15.686 2°47.952 8.8 1 15.5 101240 87
2008-05-29 08:47:39 51°15.692 2°47.927 7.2 1 15.5 101240 87
2008-05-29 08:47:44 51°15.697 2°47.901 7.7 359 15.5 101240 87
2008-05-29 08:47:49 51°15.702 2°47.876 8.8 359 15.5 101240 87
2008-05-29 08:47:54 51°15.707 2°47.85 8.2 -999 15.5 101240 87
2008-05-29 08:47:59 51°15.713 2°47.824 8.4 360 15.5 101240 87
2008-05-29 08:48:05 51°15.719 2°47.794 8 360 15.5 101240 87
2008-05-29 08:48:09 51°15.723 2°47.774 8 359 15.5 101240 88
2008-05-29 08:48:14 51°15.729 2°47.748 7.5 359 15.5 101240 88
2008-05-29 08:48:19 51°15.734 2°47.723 8.2 360 15.5 101240 88
2008-05-29 08:48:25 51°15.741 2°47.692 8.6 356 15.5 101240 88
2008-05-29 08:48:29 51°15.746 2°47.672 8.5 1 15.5 101240 88
2008-05-29 08:48:34 51°15.752 2°47.647 8.1 359 15.5 101240 88
2008-05-29 08:48:39 51°15.758 2°47.622 8.5 353 15.4 101240 88
2008-05-29 08:48:44 51°15.764 2°47.597 9.1 358 15.4 101240 88
2008-05-29 08:48:49 51°15.771 2°47.572 9.1 355 15.4 101240 88
2008-05-29 08:48:54 51°15.777 2°47.547 9.9 359 15.4 101240 88
2008-05-29 08:48:59 51°15.784 2°47.522 9 357 15.4 101240 88
2008-05-29 08:49:04 51°15.791 2°47.497 9.2 358 15.4 101240 88
2008-05-29 08:49:09 51°15.797 2°47.472 9.4 359 15.4 101240 88
2008-05-29 08:49:14 51°15.803 2°47.447 8.8 358 15.4 101240 88
2008-05-29 08:49:19 51°15.81 2°47.421 8.6 359 15.4 101240 88
2008-05-29 08:49:24 51°15.816 2°47.396 8.8 -999 15.4 101240 88
2008-05-29 08:49:29 51°15.822 2°47.371 9.4 357 15.4 101240 88
2008-05-29 08:49:34 51°15.829 2°47.346 7.2 358 15.4 101240 88
2008-05-29 08:49:39 51°15.835 2°47.321 8.7 358 15.4 101240 88
2008-05-29 08:49:45 51°15.843 2°47.291 8.1 360 15.4 101240 88
2008-05-29 08:49:49 51°15.847 2°47.271 9.3 359 15.4 101240 88
2008-05-29 08:49:54 51°15.853 2°47.246 9 357 15.4 101240 88
2008-05-29 08:49:59 51°15.859 2°47.22 9.5 358 15.4 101240 88
2008-05-29 08:50:05 51°15.866 2°47.19 8.8 357 15.4 101240 88
2008-05-29 08:50:09 51°15.871 2°47.169 9.2 359 15.4 101240 88
2008-05-29 08:50:14 51°15.877 2°47.144 8.9 357 15.4 101240 88
2008-05-29 08:50:19 51°15.883 2°47.119 9.3 359 15.4 101240 88
2008-05-29 08:50:25 51°15.89 2°47.089 8 2 15.4 101240 88
2008-05-29 08:50:29 51°15.894 2°47.069 8.3 360 15.4 101240 88
2008-05-29 08:50:34 51°15.901 2°47.044 8.2 359 15.4 101240 88
2008-05-29 08:50:39 51°15.906 2°47.018 8 1 15.4 101250 89
2008-05-29 08:50:45 51°15.913 2°46.988 8.1 1 15.4 101250 89
2008-05-29 08:50:49 51°15.918 2°46.968 8.3 355 15.4 101240 88
2008-05-29 08:50:54 51°15.923 2°46.943 8.4 357 15.4 101240 88
2008-05-29 08:50:59 51°15.93 2°46.918 9.4 358 15.4 101240 88
2008-05-29 08:51:04 51°15.936 2°46.893 8.7 357 15.4 101240 88
2008-05-29 08:51:09 51°15.943 2°46.868 9.1 357 15.4 101240 89
2008-05-29 08:51:14 51°15.949 2°46.844 8.5 359 15.4 101240 89
2008-05-29 08:51:19 51°15.956 2°46.819 9.5 359 15.4 101240 89
2008-05-29 08:51:24 51°15.963 2°46.795 8.3 358 15.4 101240 89
2008-05-29 08:51:29 51°15.969 2°46.77 8.7 354 15.3 101240 89
2008-05-29 08:51:34 51°15.977 2°46.746 9 359 15.3 101240 89
2008-05-29 08:51:39 51°15.983 2°46.721 9 -999 15.3 101240 89
2008-05-29 08:51:44 51°15.99 2°46.696 8.1 359 15.3 101240 89
2008-05-29 08:51:49 51°15.996 2°46.672 8.5 358 15.4 101240 89
2008-05-29 08:51:54 51°16.004 2°46.647 9 355 15.4 101240 89
2008-05-29 08:51:59 51°16.01 2°46.623 8.7 357 15.3 101240 89
2008-05-29 08:52:05 51°16.019 2°46.594 9.2 356 15.3 101240 89
2008-05-29 08:52:09 51°16.024 2°46.574 8.4 359 15.3 101240 89
2008-05-29 08:52:14 51°16.031 2°46.55 8.6 357 15.3 101240 89
2008-05-29 08:52:19 51°16.038 2°46.525 8 358 15.3 101240 89
2008-05-29 08:52:25 51°16.047 2°46.496 7.8 357 15.3 101240 89
2008-05-29 08:52:29 51°16.052 2°46.476 7.7 356 15.3 101240 89
2008-05-29 08:52:34 51°16.058 2°46.452 9 357 15.3 101240 89
2008-05-29 08:52:39 51°16.065 2°46.427 8.5 356 15.3 101240 89
2008-05-29 08:52:45 51°16.074 2°46.398 9 357 15.3 101240 89
2008-05-29 08:52:49 51°16.079 2°46.378 7.7 356 15.3 101240 89
2008-05-29 08:52:54 51°16.086 2°46.354 8.9 357 15.3 101240 89
2008-05-29 08:52:59 51°16.093 2°46.33 8.3 357 15.3 101250 89
2008-05-29 08:53:04 51°16.1 2°46.305 8.7 359 15.3 101250 89
2008-05-29 08:53:09 51°16.107 2°46.281 8.2 356 15.3 101240 89
2008-05-29 08:53:14 51°16.114 2°46.256 7.7 358 15.3 101240 89
2008-05-29 08:53:19 51°16.121 2°46.232 8.3 354 15.3 101240 89
2008-05-29 08:53:25 51°16.13 2°46.203 9 359 15.3 101240 89
2008-05-29 08:53:29 51°16.136 2°46.183 9.4 357 15.3 101240 89
2008-05-29 08:53:34 51°16.143 2°46.159 9.5 357 15.3 101240 89
2008-05-29 08:53:39 51°16.151 2°46.135 9.2 357 15.3 101240 89
2008-05-29 08:53:44 51°16.159 2°46.111 9.4 356 15.3 101240 89
2008-05-29 08:53:49 51°16.166 2°46.087 8.4 357 15.3 101240 90
2008-05-29 08:53:54 51°16.175 2°46.063 9 355 15.3 101240 90
2008-05-29 08:53:59 51°16.182 2°46.039 9.2 358 15.3 101240 89
2008-05-29 08:54:04 51°16.19 2°46.015 9.7 357 15.3 101240 89
2008-05-29 08:54:09 51°16.198 2°45.991 8.9 356 15.3 101240 89
2008-05-29 08:54:14 51°16.206 2°45.967 9 357 15.3 101240 89
2008-05-29 08:54:19 51°16.214 2°45.942 9.2 357 15.3 101240 89
2008-05-29 08:54:25 51°16.223 2°45.914 10 -999 15.3 101240 89
2008-05-29 08:54:29 51°16.229 2°45.894 9.6 356 15.2 101240 89
2008-05-29 08:54:34 51°16.237 2°45.87 8.5 356 15.2 101240 89
2008-05-29 08:54:39 51°16.245 2°45.845 8.7 357 15.2 101230 89
2008-05-29 08:54:44 51°16.253 2°45.821 8.9 359 15.2 101230 89
2008-05-29 08:54:49 51°16.261 2°45.797 8.7 357 15.2 101240 89
2008-05-29 08:54:54 51°16.268 2°45.772 9.3 356 15.2 101240 89
2008-05-29 08:54:59 51°16.276 2°45.748 9.3 359 15.2 101240 89
2008-05-29 08:55:05 51°16.285 2°45.719 8.5 357 15.2 101240 89
2008-05-29 08:55:09 51°16.291 2°45.699 10.5 358 15.2 101240 89
2008-05-29 08:55:14 51°16.299 2°45.675 10.2 358 15.2 101240 89
2008-05-29 08:55:19 51°16.306 2°45.65 10.1 359 15.2 101230 89
2008-05-29 08:55:24 51°16.314 2°45.626 8.6 358 15.2 101230 89
2008-05-29 08:55:29 51°16.322 2°45.601 9.7 358 15.2 101240 89
2008-05-29 08:55:34 51°16.329 2°45.576 9.6 356 15.2 101240 89
2008-05-29 08:55:39 51°16.337 2°45.552 9.6 359 15.2 101230 89
2008-05-29 08:55:44 51°16.345 2°45.528 8.5 357 15.2 101230 89
2008-05-29 08:55:49 51°16.352 2°45.503 9 355 15.2 101240 89
2008-05-29 08:55:54 51°16.36 2°45.479 10.3 357 15.2 101240 89
2008-05-29 08:55:59 51°16.368 2°45.454 9.5 355 15.2 101240 89
2008-05-29 08:56:04 51°16.377 2°45.43 9.1 356 15.2 101240 89
2008-05-29 08:56:09 51°16.384 2°45.405 9.4 355 15.2 101230 89
2008-05-29 08:56:14 51°16.392 2°45.381 8.8 356 15.2 101230 89
2008-05-29 08:56:19 51°16.401 2°45.357 10.3 355 15.2 101230 89
2008-05-29 08:56:25 51°16.411 2°45.327 9.7 -999 15.2 101230 89
2008-05-29 08:56:29 51°16.418 2°45.308 8.2 356 15.2 101230 89
2008-05-29 08:56:34 51°16.427 2°45.284 10.6 358 15.2 101230 89
2008-05-29 08:56:39 51°16.435 2°45.26 9.7 356 15.2 101230 89
2008-05-29 08:56:44 51°16.444 2°45.236 10 357 15.2 101230 89
2008-05-29 08:56:49 51°16.453 2°45.212 10 356 15.2 101240 89
2008-05-29 08:56:54 51°16.461 2°45.188 9.1 355 15.2 101240 89
2008-05-29 08:57:00 51°16.472 2°45.159 10 357 15.2 101240 89
2008-05-29 08:57:05 51°16.48 2°45.134 9.4 355 15.2 101240 89
2008-05-29 08:57:09 51°16.487 2°45.115 10 355 15.2 101240 89
2008-05-29 08:57:14 51°16.496 2°45.09 9.2 356 15.2 101240 89
2008-05-29 08:57:19 51°16.504 2°45.066 9.1 356 15.2 101240 89
2008-05-29 08:57:24 51°16.513 2°45.042 10.9 356 15.2 101240 89
2008-05-29 08:57:29 51°16.521 2°45.017 10.3 356 15.2 101230 89
2008-05-29 08:57:34 51°16.529 2°44.993 9.7 356 15.2 101230 89
2008-05-29 08:57:39 51°16.537 2°44.968 8.9 357 15.2 101230 89
2008-05-29 08:57:44 51°16.545 2°44.943 8.7 357 15.2 101230 89
2008-05-29 08:57:49 51°16.552 2°44.918 9.8 358 15.1 101230 89
2008-05-29 08:57:54 51°16.56 2°44.893 8.6 356 15.1 101230 89
2008-05-29 08:57:59 51°16.567 2°44.868 10.2 355 15.1 101240 89
2008-05-29 08:58:04 51°16.575 2°44.843 8.7 357 15.1 101240 89
2008-05-29 08:58:09 51°16.583 2°44.818 10.1 358 15.1 101240 89
2008-05-29 08:58:14 51°16.592 2°44.794 9.9 355 15.1 101240 89
2008-05-29 08:58:19 51°16.6 2°44.769 10.3 355 15.1 101240 89
2008-05-29 08:58:25 51°16.611 2°44.74 10.6 356 15.1 101240 89
2008-05-29 08:58:29 51°16.617 2°44.721 9.3 355 15.1 101230 89
2008-05-29 08:58:34 51°16.626 2°44.696 10.2 353 15.1 101230 89
2008-05-29 08:58:39 51°16.634 2°44.672 9.6 356 15.1 101230 89
2008-05-29 08:58:44 51°16.643 2°44.647 10.2 358 15.1 101230 89
2008-05-29 08:58:49 51°16.651 2°44.623 9.6 356 15.1 101240 89
2008-05-29 08:58:54 51°16.66 2°44.598 9.2 354 15.1 101240 89
2008-05-29 08:59:00 51°16.67 2°44.569 11 356 15.1 101230 89
2008-05-29 08:59:05 51°16.679 2°44.545 10.7 353 15.1 101230 89
2008-05-29 08:59:09 51°16.686 2°44.525 9.1 354 15.1 101230 89
2008-05-29 08:59:14 51°16.694 2°44.501 9.6 355 15.1 101230 89
2008-05-29 08:59:19 51°16.702 2°44.476 11 354 15.1 101230 89
2008-05-29 08:59:25 51°16.712 2°44.447 10.1 355 15.1 101230 89
2008-05-29 08:59:29 51°16.719 2°44.427 9.6 356 15.1 101240 89
2008-05-29 08:59:34 51°16.727 2°44.403 9.6 353 15.1 101240 89
2008-05-29 08:59:39 51°16.736 2°44.378 10 356 15.1 101230 89
2008-05-29 08:59:45 51°16.746 2°44.349 10 358 15.1 101230 89
2008-05-29 08:59:49 51°16.752 2°44.329 9.3 356 15.1 101240 90
2008-05-29 08:59:54 51°16.761 2°44.305 9.5 356 15.1 101240 90
2008-05-29 08:59:59 51°16.769 2°44.28 10.6 357 15.1 101230 89
2008-05-29 09:00:04 51°16.778 2°44.256 9.2 356 15.1 101230 89
2008-05-29 09:00:09 51°16.785 2°44.231 11.2 358 15.1 101230 89
2008-05-29 09:00:14 51°16.793 2°44.207 9.2 355 15.1 101230 89
2008-05-29 09:00:19 51°16.8 2°44.182 9.6 356 15.1 101240 89
2008-05-29 09:00:25 51°16.809 2°44.152 10.4 356 15.1 101240 89
2008-05-29 09:00:29 51°16.815 2°44.132 9.1 358 15.1 101230 89
2008-05-29 09:00:34 51°16.823 2°44.107 9.2 356 15.1 101230 89
2008-05-29 09:00:39 51°16.83 2°44.082 10.5 355 15.1 101230 90
2008-05-29 09:00:44 51°16.838 2°44.057 10.5 354 15.1 101230 90
2008-05-29 09:00:49 51°16.845 2°44.032 4.4 356 15.1 101230 90
2008-05-29 09:00:54 51°16.853 2°44.007 10.7 358 15.1 101230 90
2008-05-29 09:01:00 51°16.862 2°43.977 10.8 353 15.1 101240 90
2008-05-29 09:01:05 51°16.87 2°43.953 9.2 356 15.1 101240 90
2008-05-29 09:01:09 51°16.876 2°43.933 10.1 357 15.1 101230 90
2008-05-29 09:01:14 51°16.885 2°43.91 10.4 353 15.1 101230 90
2008-05-29 09:01:19 51°16.894 2°43.886 10.5 355 15.1 101230 89
2008-05-29 09:01:25 51°16.905 2°43.858 10.8 356 15.1 101230 89
2008-05-29 09:01:29 51°16.913 2°43.84 10 353 15.1 101240 89
2008-05-29 09:01:34 51°16.923 2°43.817 10.7 355 15.1 101240 89
2008-05-29 09:01:39 51°16.933 2°43.795 11 351 15.1 101240 89
2008-05-29 09:01:45 51°16.945 2°43.768 10.3 357 15.1 101240 89
2008-05-29 09:01:49 51°16.953 2°43.75 9.7 355 15.1 101220 89
2008-05-29 09:01:54 51°16.964 2°43.728 9.6 355 15.1 101220 89
2008-05-29 09:01:59 51°16.974 2°43.706 11.3 353 15.1 101230 89
2008-05-29 09:02:04 51°16.985 2°43.684 11.9 354 15.1 101230 89
2008-05-29 09:02:09 51°16.995 2°43.661 12.3 355 15.1 101230 89
2008-05-29 09:02:14 51°17.006 2°43.639 9.7 355 15.1 101230 89
2008-05-29 09:02:19 51°17.016 2°43.617 10.8 353 15.1 101240 89
2008-05-29 09:02:25 51°17.029 2°43.59 9.8 -999 15.1 101240 89
2008-05-29 09:02:29 51°17.037 2°43.572 10.1 352 15.1 101230 89
2008-05-29 09:02:34 51°17.048 2°43.55 11.5 354 15.1 101230 89
2008-05-29 09:02:39 51°17.059 2°43.528 11.2 355 15.1 101230 89
2008-05-29 09:02:44 51°17.069 2°43.506 11.2 355 15.1 101230 89
2008-05-29 09:02:49 51°17.08 2°43.484 10.5 356 15.1 101230 89
2008-05-29 09:02:54 51°17.09 2°43.461 10.8 356 15.1 101230 89
2008-05-29 09:02:59 51°17.101 2°43.439 11.4 356 15.1 101230 89
2008-05-29 09:03:04 51°17.111 2°43.417 10.1 355 15.1 101230 89
2008-05-29 09:03:09 51°17.121 2°43.395 10.1 353 15.1 101230 89
2008-05-29 09:03:14 51°17.132 2°43.373 10.7 353 15.1 101230 89
2008-05-29 09:03:19 51°17.142 2°43.35 10.6 357 15.1 101230 89
2008-05-29 09:03:25 51°17.154 2°43.324 10.6 356 15.1 101230 89
2008-05-29 09:03:29 51°17.163 2°43.306 10.9 353 15.1 101230 89
2008-05-29 09:03:34 51°17.173 2°43.284 10.6 354 15.1 101230 89
2008-05-29 09:03:39 51°17.183 2°43.261 10.1 355 15.1 101230 89
2008-05-29 09:03:44 51°17.194 2°43.239 10.9 357 15.1 101230 89
2008-05-29 09:03:49 51°17.204 2°43.217 10.8 355 15.1 101240 89
2008-05-29 09:03:54 51°17.215 2°43.195 10.6 355 15.1 101240 89
2008-05-29 09:03:59 51°17.225 2°43.173 10.2 357 15.1 101230 89
2008-05-29 09:04:05 51°17.237 2°43.146 9.6 357 15.1 101230 89
2008-05-29 09:04:09 51°17.246 2°43.128 9.6 355 15 101230 89
2008-05-29 09:04:14 51°17.256 2°43.107 11.3 356 15 101230 89
2008-05-29 09:04:19 51°17.266 2°43.084 10.6 357 15 101230 89
2008-05-29 09:04:25 51°17.279 2°43.058 11.4 356 15 101230 89
2008-05-29 09:04:29 51°17.288 2°43.041 11.5 353 15.1 101230 90
2008-05-29 09:04:34 51°17.298 2°43.019 11.3 355 15.1 101230 90
2008-05-29 09:04:39 51°17.309 2°42.997 10.7 355 15 101240 89
2008-05-29 09:04:44 51°17.319 2°42.975 11.8 355 15 101240 89
2008-05-29 09:04:49 51°17.33 2°42.954 11.1 358 15.1 101230 89
2008-05-29 09:04:54 51°17.34 2°42.932 11.2 356 15.1 101230 89
2008-05-29 09:04:59 51°17.351 2°42.91 11 357 15 101230 89
2008-05-29 09:05:04 51°17.361 2°42.889 10.7 354 15 101230 89
2008-05-29 09:05:09 51°17.372 2°42.867 10.8 355 15 101230 89
2008-05-29 09:05:14 51°17.382 2°42.846 10.4 357 15 101230 89
2008-05-29 09:05:19 51°17.393 2°42.824 10.4 358 15 101230 89
2008-05-29 09:05:25 51°17.406 2°42.798 11.3 354 15 101230 89
2008-05-29 09:05:29 51°17.415 2°42.781 11.4 356 15 101230 89
2008-05-29 09:05:34 51°17.426 2°42.759 9.7 357 15 101230 89
2008-05-29 09:05:39 51°17.437 2°42.738 10.2 356 15 101240 89
2008-05-29 09:05:44 51°17.448 2°42.716 11.8 357 15 101240 89
2008-05-29 09:05:49 51°17.459 2°42.695 11.6 357 15 101230 89
2008-05-29 09:05:54 51°17.469 2°42.673 10.5 1 15 101230 89
2008-05-29 09:05:59 51°17.48 2°42.651 10.1 357 15 101230 89
2008-05-29 09:06:05 51°17.493 2°42.624 10.7 357 15 101230 89
2008-05-29 09:06:09 51°17.501 2°42.607 10.3 358 15 101230 89
2008-05-29 09:06:14 51°17.511 2°42.584 9.1 356 15 101230 89
2008-05-29 09:06:19 51°17.521 2°42.562 11.3 357 15.1 101230 89
2008-05-29 09:06:25 51°17.533 2°42.534 11 357 15.1 101230 89
2008-05-29 09:06:29 51°17.542 2°42.516 9.1 358 15 101230 89
2008-05-29 09:06:34 51°17.552 2°42.494 10.5 356 15 101230 89
2008-05-29 09:06:39 51°17.562 2°42.471 11 356 15 101230 89
2008-05-29 09:06:44 51°17.573 2°42.449 10.5 354 15 101230 89
2008-05-29 09:06:49 51°17.584 2°42.427 11.6 357 15 101230 89
2008-05-29 09:06:54 51°17.595 2°42.405 11 356 15 101230 89
2008-05-29 09:06:59 51°17.606 2°42.384 9.3 356 15 101240 89
2008-05-29 09:07:04 51°17.617 2°42.362 11 356 15 101240 89
2008-05-29 09:07:09 51°17.629 2°42.341 11.9 356 15 101240 89
2008-05-29 09:07:14 51°17.64 2°42.32 9.7 355 15 101240 89
2008-05-29 09:07:19 51°17.652 2°42.299 11.4 355 15 101240 89
2008-05-29 09:07:25 51°17.665 2°42.273 11.5 355 15 101240 89
2008-05-29 09:07:29 51°17.675 2°42.256 11.8 354 15 101230 89
2008-05-29 09:07:34 51°17.686 2°42.235 10.4 353 15 101230 89
2008-05-29 09:07:39 51°17.698 2°42.213 10.3 354 15 101230 89
2008-05-29 09:07:44 51°17.709 2°42.192 11.3 355 15 101230 89
2008-05-29 09:07:49 51°17.721 2°42.171 11.4 355 15 101230 89
2008-05-29 09:07:54 51°17.733 2°42.15 11.8 357 15 101230 89
2008-05-29 09:07:59 51°17.745 2°42.129 11.5 354 15 101230 89
2008-05-29 09:08:05 51°17.759 2°42.103 9.4 356 15 101230 89
2008-05-29 09:08:09 51°17.767 2°42.085 10.1 356 15 101230 89
2008-05-29 09:08:14 51°17.778 2°42.063 10.3 354 15 101230 89
2008-05-29 09:08:19 51°17.789 2°42.041 11.2 356 15 101230 89
2008-05-29 09:08:25 51°17.802 2°42.014 10.6 357 15 101230 89
2008-05-29 09:08:29 51°17.81 2°41.995 10.1 354 15 101230 89
2008-05-29 09:08:34 51°17.82 2°41.973 10.8 357 15 101230 89
2008-05-29 09:08:39 51°17.83 2°41.949 10.1 356 15 101230 89
2008-05-29 09:08:45 51°17.842 2°41.922 11 357 15 101230 89
2008-05-29 09:08:49 51°17.849 2°41.903 11 358 15 101230 89
2008-05-29 09:08:54 51°17.858 2°41.88 9.8 357 15 101230 89
2008-05-29 09:08:59 51°17.867 2°41.856 10 357 15 101230 89
2008-05-29 09:09:05 51°17.879 2°41.829 9.6 355 15 101230 89
2008-05-29 09:09:09 51°17.887 2°41.81 11.1 356 15 101230 89
2008-05-29 09:09:14 51°17.896 2°41.787 11.2 356 15 101230 89
2008-05-29 09:09:19 51°17.906 2°41.763 9.5 355 15 101230 89
2008-05-29 09:09:25 51°17.917 2°41.736 11.3 356 15 101230 89
2008-05-29 09:09:29 51°17.925 2°41.717 9.4 355 15 101240 89
2008-05-29 09:09:34 51°17.934 2°41.694 10 356 15 101240 89
2008-05-29 09:09:39 51°17.944 2°41.671 11.4 357 15 101230 89
2008-05-29 09:09:44 51°17.953 2°41.648 10.7 358 15 101230 89
2008-05-29 09:09:49 51°17.963 2°41.625 10.7 358 15 101230 89
2008-05-29 09:09:54 51°17.972 2°41.601 10.1 358 15 101230 89
2008-05-29 09:09:59 51°17.981 2°41.578 9.5 356 15 101230 89
2008-05-29 09:10:05 51°17.991 2°41.55 10.4 359 15 101230 89
2008-05-29 09:10:09 51°17.998 2°41.531 10.5 359 15 101230 89
2008-05-29 09:10:14 51°18.007 2°41.507 10.9 358 15 101230 89
2008-05-29 09:10:19 51°18.015 2°41.484 9.9 357 15 101230 89
2008-05-29 09:10:25 51°18.026 2°41.455 9.6 357 15 101230 89
2008-05-29 09:10:29 51°18.033 2°41.436 10 355 14.9 101230 89
2008-05-29 09:10:34 51°18.042 2°41.412 10.5 355 14.9 101230 89
2008-05-29 09:10:40 51°18.052 2°41.384 9.9 358 15 101230 89
2008-05-29 09:10:45 51°18.061 2°41.36 10.3 357 15 101230 89
2008-05-29 09:10:49 51°18.067 2°41.341 10.3 357 15 101230 89
2008-05-29 09:10:54 51°18.076 2°41.318 10.6 356 15 101230 89
2008-05-29 09:10:59 51°18.085 2°41.294 9.5 356 15 101230 90
2008-05-29 09:11:04 51°18.093 2°41.27 10.5 357 15 101230 90
2008-05-29 09:11:09 51°18.102 2°41.246 9.9 -999 14.9 101230 89
2008-05-29 09:11:14 51°18.111 2°41.223 9.8 357 14.9 101230 89
2008-05-29 09:11:19 51°18.119 2°41.199 11.3 356 14.9 101230 90
2008-05-29 09:11:25 51°18.13 2°41.17 9.8 -999 14.9 101230 90
2008-05-29 09:11:29 51°18.137 2°41.151 10.2 358 15 101230 90
2008-05-29 09:11:34 51°18.146 2°41.128 10.1 356 15 101230 90
2008-05-29 09:11:39 51°18.155 2°41.104 11 358 14.9 101230 89
2008-05-29 09:11:44 51°18.164 2°41.081 10.3 359 14.9 101230 89
2008-05-29 09:11:49 51°18.173 2°41.058 11.5 357 14.9 101230 90
2008-05-29 09:11:54 51°18.182 2°41.034 10.9 357 14.9 101230 90
2008-05-29 09:11:59 51°18.19 2°41.01 10.9 360 14.9 101230 89
2008-05-29 09:12:04 51°18.199 2°40.986 10.7 358 14.9 101230 89
2008-05-29 09:12:09 51°18.207 2°40.962 11.5 357 14.9 101230 89
2008-05-29 09:12:14 51°18.216 2°40.938 10.3 356 14.9 101230 89
2008-05-29 09:12:19 51°18.224 2°40.914 10.4 357 14.9 101230 89
2008-05-29 09:12:25 51°18.235 2°40.886 10.4 360 14.9 101230 89
2008-05-29 09:12:29 51°18.241 2°40.867 10.8 357 14.9 101230 89
2008-05-29 09:12:34 51°18.25 2°40.843 10.6 357 14.9 101230 89
2008-05-29 09:12:40 51°18.26 2°40.815 10 357 14.9 101230 89
2008-05-29 09:12:44 51°18.267 2°40.796 9.5 357 14.9 101230 89
2008-05-29 09:12:49 51°18.276 2°40.773 9.1 355 14.9 101230 89
2008-05-29 09:12:54 51°18.285 2°40.75 11.4 357 14.9 101230 89
2008-05-29 09:12:59 51°18.293 2°40.726 9.9 357 14.9 101230 89
2008-05-29 09:13:05 51°18.304 2°40.698 10.8 356 14.9 101230 89
2008-05-29 09:13:09 51°18.31 2°40.678 11.2 357 14.9 101230 89
2008-05-29 09:13:14 51°18.319 2°40.655 10.3 354 14.9 101230 89
2008-05-29 09:13:19 51°18.328 2°40.631 10.2 356 14.9 101230 89
2008-05-29 09:13:25 51°18.339 2°40.604 11 357 14.9 101230 89
2008-05-29 09:13:29 51°18.346 2°40.585 11.2 357 14.9 101230 89
2008-05-29 09:13:34 51°18.355 2°40.562 11.3 355 14.9 101230 89
2008-05-29 09:13:39 51°18.365 2°40.539 10.8 356 14.9 101230 90
2008-05-29 09:13:44 51°18.374 2°40.516 9.1 354 14.9 101230 90
2008-05-29 09:13:49 51°18.384 2°40.494 10.6 357 14.9 101220 89
2008-05-29 09:13:54 51°18.394 2°40.472 11.3 355 14.9 101220 89
2008-05-29 09:13:59 51°18.404 2°40.45 10.3 357 14.9 101230 89
2008-05-29 09:14:04 51°18.414 2°40.427 9.6 355 14.9 101230 89
2008-05-29 09:14:09 51°18.424 2°40.405 10.2 359 14.9 101230 89
2008-05-29 09:14:14 51°18.435 2°40.383 11.3 356 14.9 101230 89
2008-05-29 09:14:19 51°18.444 2°40.361 10.1 355 14.9 101220 89
2008-05-29 09:14:25 51°18.456 2°40.334 9.4 359 14.9 101220 89
2008-05-29 09:14:29 51°18.463 2°40.316 10 358 14.9 101220 89
2008-05-29 09:14:34 51°18.473 2°40.294 11.1 357 14.9 101220 89
2008-05-29 09:14:39 51°18.482 2°40.271 11.2 357 14.9 101220 89
2008-05-29 09:14:44 51°18.491 2°40.248 9.5 356 14.9 101220 89
2008-05-29 09:14:49 51°18.5 2°40.224 10.9 356 14.9 101230 90
2008-05-29 09:14:54 51°18.509 2°40.202 10.1 358 14.9 101230 90
2008-05-29 09:14:59 51°18.518 2°40.178 10.7 358 14.9 101230 90
2008-05-29 09:15:05 51°18.53 2°40.151 10.2 357 14.9 101230 90
2008-05-29 09:15:09 51°18.537 2°40.133 10.7 359 14.9 101220 89
2008-05-29 09:15:14 51°18.547 2°40.11 10.8 356 14.9 101220 89
2008-05-29 09:15:19 51°18.556 2°40.087 11.3 360 14.9 101230 89
2008-05-29 09:15:25 51°18.567 2°40.059 10.8 355 14.9 101230 89
2008-05-29 09:15:29 51°18.575 2°40.041 11 358 14.9 101220 89
2008-05-29 09:15:34 51°18.584 2°40.018 10.6 358 14.9 101220 89
2008-05-29 09:15:39 51°18.594 2°39.995 10.9 357 14.9 101220 89
2008-05-29 09:15:44 51°18.603 2°39.972 10.9 358 14.9 101220 89
2008-05-29 09:15:49 51°18.612 2°39.948 11.5 -999 14.9 101230 89
2008-05-29 09:15:54 51°18.622 2°39.926 10.7 359 14.9 101230 89
2008-05-29 09:15:59 51°18.631 2°39.902 9 356 14.9 101220 89
2008-05-29 09:16:05 51°18.642 2°39.875 10.4 358 14.9 101220 89
2008-05-29 09:16:09 51°18.65 2°39.857 10.8 357 14.9 101220 89
2008-05-29 09:16:14 51°18.659 2°39.834 9.8 358 14.9 101220 89
2008-05-29 09:16:19 51°18.669 2°39.811 10.4 358 14.9 101220 89
2008-05-29 09:16:25 51°18.681 2°39.783 10 358 14.9 101220 89
2008-05-29 09:16:29 51°18.688 2°39.765 10.3 357 14.9 101220 89
2008-05-29 09:16:34 51°18.698 2°39.742 10.5 360 14.9 101220 89
2008-05-29 09:16:39 51°18.708 2°39.719 9.9 356 14.9 101220 89
2008-05-29 09:16:44 51°18.717 2°39.696 10.4 356 14.9 101220 89
2008-05-29 09:16:49 51°18.727 2°39.674 10.6 358 14.9 101220 89
2008-05-29 09:16:54 51°18.737 2°39.651 10.1 355 14.9 101220 89
2008-05-29 09:17:00 51°18.75 2°39.624 11.1 357 14.9 101230 89
2008-05-29 09:17:05 51°18.76 2°39.602 12.5 357 14.9 101230 89
2008-05-29 09:17:09 51°18.768 2°39.584 12.2 356 14.9 101230 89
2008-05-29 09:17:14 51°18.779 2°39.561 10.3 357 14.9 101230 89
2008-05-29 09:17:19 51°18.789 2°39.539 11.2 357 14.9 101220 89
2008-05-29 09:17:25 51°18.8 2°39.511 10.3 355 14.9 101220 89
2008-05-29 09:17:29 51°18.808 2°39.493 11 358 14.8 101220 89
2008-05-29 09:17:34 51°18.818 2°39.47 11.2 359 14.8 101220 89
2008-05-29 09:17:39 51°18.828 2°39.447 10.3 358 14.9 101220 89
2008-05-29 09:17:45 51°18.839 2°39.418 11 359 14.9 101220 89
2008-05-29 09:17:49 51°18.847 2°39.4 11.3 355 14.8 101220 89
2008-05-29 09:17:54 51°18.856 2°39.377 10.6 357 14.8 101220 89
2008-05-29 09:17:59 51°18.866 2°39.354 11.9 355 14.9 101220 89
2008-05-29 09:18:05 51°18.877 2°39.326 10.9 357 14.9 101220 89
2008-05-29 09:18:09 51°18.885 2°39.308 11.3 357 14.9 101220 89
2008-05-29 09:18:14 51°18.895 2°39.285 10 356 14.9 101220 89
2008-05-29 09:18:19 51°18.905 2°39.262 11.1 356 14.9 101220 89
2008-05-29 09:18:25 51°18.916 2°39.234 11.4 357 14.9 101220 89
2008-05-29 09:18:29 51°18.924 2°39.216 12.2 358 14.9 101220 89
2008-05-29 09:18:34 51°18.934 2°39.193 12 360 14.9 101220 89
2008-05-29 09:18:39 51°18.943 2°39.17 10.4 356 14.9 101220 89
2008-05-29 09:18:44 51°18.953 2°39.147 10.6 356 14.9 101220 89
2008-05-29 09:18:49 51°18.962 2°39.124 10.6 359 14.9 101230 89
2008-05-29 09:18:54 51°18.972 2°39.101 11.9 357 14.9 101230 89
2008-05-29 09:19:00 51°18.983 2°39.073 11.4 358 14.9 101220 89
2008-05-29 09:19:05 51°18.993 2°39.05 10.1 357 14.9 101220 89
2008-05-29 09:19:09 51°19 2°39.032 11 360 14.9 101220 89
2008-05-29 09:19:14 51°19.01 2°39.009 10 358 14.9 101220 89
2008-05-29 09:19:19 51°19.02 2°38.986 11.3 358 14.9 101220 89
2008-05-29 09:19:25 51°19.031 2°38.958 11.8 358 14.9 101220 89
2008-05-29 09:19:29 51°19.039 2°38.94 10.4 356 14.9 101220 89
2008-05-29 09:19:34 51°19.048 2°38.916 11.6 357 14.9 101220 89
2008-05-29 09:19:40 51°19.06 2°38.888 11.1 357 14.9 101220 89
2008-05-29 09:19:45 51°19.069 2°38.865 10.6 356 14.9 101220 89
2008-05-29 09:19:49 51°19.077 2°38.847 11.6 359 14.8 101220 89
2008-05-29 09:19:54 51°19.087 2°38.824 10.2 359 14.8 101220 89
2008-05-29 09:19:59 51°19.096 2°38.801 11.1 355 14.8 101220 89
2008-05-29 09:20:05 51°19.107 2°38.773 10.4 357 14.8 101220 89
2008-05-29 09:20:09 51°19.114 2°38.755 10.2 357 14.8 101230 89
2008-05-29 09:20:14 51°19.123 2°38.733 9.2 356 14.8 101230 89
2008-05-29 09:20:19 51°19.132 2°38.711 11.7 360 14.8 101230 89
2008-05-29 09:20:25 51°19.143 2°38.685 10 -999 14.8 101230 89
2008-05-29 09:20:29 51°19.15 2°38.667 11.5 357 14.8 101230 89
2008-05-29 09:20:34 51°19.159 2°38.645 9.5 356 14.8 101230 89
2008-05-29 09:20:39 51°19.168 2°38.622 9.8 357 14.8 101220 89
2008-05-29 09:20:44 51°19.177 2°38.599 11 354 14.8 101220 89
2008-05-29 09:20:49 51°19.185 2°38.575 10.3 357 14.8 101230 89
2008-05-29 09:20:54 51°19.194 2°38.552 11.2 357 14.8 101230 89
2008-05-29 09:21:00 51°19.205 2°38.524 10 356 14.8 101220 89
2008-05-29 09:21:05 51°19.213 2°38.5 9 355 14.8 101220 89
2008-05-29 09:21:09 51°19.22 2°38.481 10.9 357 14.8 101220 89
2008-05-29 09:21:14 51°19.228 2°38.457 10 357 14.8 101220 89
2008-05-29 09:21:19 51°19.237 2°38.433 9.4 358 14.8 101220 89
2008-05-29 09:21:25 51°19.247 2°38.405 11.2 354 14.8 101220 89
2008-05-29 09:21:29 51°19.254 2°38.386 11.9 357 14.8 101220 89
2008-05-29 09:21:34 51°19.262 2°38.362 10.8 356 14.8 101220 89
2008-05-29 09:21:40 51°19.273 2°38.334 10.2 355 14.8 101230 89
2008-05-29 09:21:45 51°19.281 2°38.31 10.7 355 14.8 101230 89
2008-05-29 09:21:49 51°19.288 2°38.291 11.6 355 14.8 101220 89
2008-05-29 09:21:54 51°19.298 2°38.268 11.9 352 14.8 101220 89
2008-05-29 09:21:59 51°19.308 2°38.246 11.3 355 14.8 101220 89
2008-05-29 09:22:05 51°19.322 2°38.22 10.8 353 14.8 101220 89
2008-05-29 09:22:09 51°19.33 2°38.203 10.2 352 14.8 101220 89
2008-05-29 09:22:14 51°19.341 2°38.182 11.5 352 14.8 101220 89
2008-05-29 09:22:19 51°19.352 2°38.16 11 354 14.8 101230 89
2008-05-29 09:22:25 51°19.365 2°38.134 10.9 353 14.8 101230 89
2008-05-29 09:22:29 51°19.374 2°38.117 11.1 354 14.8 101220 89
2008-05-29 09:22:34 51°19.384 2°38.095 9.8 354 14.8 101220 89
2008-05-29 09:22:39 51°19.395 2°38.074 10.9 354 14.8 101230 89
2008-05-29 09:22:44 51°19.406 2°38.052 11.7 353 14.8 101230 89
2008-05-29 09:22:49 51°19.416 2°38.031 12 355 14.8 101220 89
2008-05-29 09:22:54 51°19.427 2°38.009 10.5 354 14.8 101220 89
2008-05-29 09:22:59 51°19.437 2°37.987 9 355 14.8 101220 89
2008-05-29 09:23:04 51°19.447 2°37.965 10.8 353 14.8 101220 89
2008-05-29 09:23:09 51°19.457 2°37.943 12 357 14.8 101220 89
2008-05-29 09:23:14 51°19.467 2°37.921 9.8 355 14.8 101220 89
2008-05-29 09:23:19 51°19.477 2°37.899 10.1 356 14.8 101230 89
2008-05-29 09:23:25 51°19.49 2°37.873 10.8 -999 14.8 101230 89
2008-05-29 09:23:29 51°19.498 2°37.856 9.7 354 14.8 101230 89
2008-05-29 09:23:34 51°19.508 2°37.834 10.1 355 14.8 101230 89
2008-05-29 09:23:39 51°19.519 2°37.812 11.5 354 14.8 101220 89
2008-05-29 09:23:44 51°19.529 2°37.791 9.8 353 14.8 101220 89
2008-05-29 09:23:49 51°19.54 2°37.77 11.7 356 14.8 101220 89
2008-05-29 09:23:54 51°19.55 2°37.748 10.3 359 14.8 101220 89
2008-05-29 09:24:00 51°19.562 2°37.723 11.2 357 14.8 101220 89
2008-05-29 09:24:05 51°19.572 2°37.701 10.9 357 14.8 101220 89
2008-05-29 09:24:09 51°19.58 2°37.684 10.8 354 14.8 101220 89
2008-05-29 09:24:14 51°19.59 2°37.663 10.7 354 14.8 101220 89
2008-05-29 09:24:19 51°19.601 2°37.642 11.2 356 14.8 101230 89
2008-05-29 09:24:25 51°19.613 2°37.617 11.9 353 14.8 101230 89
2008-05-29 09:24:29 51°19.622 2°37.601 10.9 356 14.8 101230 89
2008-05-29 09:24:34 51°19.632 2°37.581 10.3 355 14.8 101230 89
2008-05-29 09:24:39 51°19.643 2°37.562 11 354 14.8 101230 89
2008-05-29 09:24:45 51°19.655 2°37.539 10.6 355 14.8 101230 89
2008-05-29 09:24:49 51°19.663 2°37.524 11.5 354 14.8 101230 89
2008-05-29 09:24:54 51°19.673 2°37.506 10.9 355 14.8 101230 89
2008-05-29 09:24:59 51°19.683 2°37.488 10.7 356 14.8 101230 89
2008-05-29 09:25:05 51°19.695 2°37.466 10.4 355 14.8 101230 89
2008-05-29 09:25:09 51°19.703 2°37.452 9.8 356 14.8 101230 89
2008-05-29 09:25:14 51°19.713 2°37.434 11.4 352 14.8 101230 89
2008-05-29 09:25:19 51°19.722 2°37.416 11.7 354 14.8 101230 89
2008-05-29 09:25:25 51°19.734 2°37.395 11.3 357 14.8 101230 89
2008-05-29 09:25:29 51°19.742 2°37.38 9.8 358 14.8 101230 89
2008-05-29 09:25:34 51°19.751 2°37.362 10.9 355 14.8 101230 89
2008-05-29 09:25:39 51°19.76 2°37.345 10 356 14.8 101230 89
2008-05-29 09:25:44 51°19.77 2°37.326 10.9 357 14.8 101230 89
2008-05-29 09:25:49 51°19.779 2°37.309 9.9 355 14.8 101230 89
2008-05-29 09:25:54 51°19.788 2°37.293 9.9 359 14.8 101230 89
2008-05-29 09:25:59 51°19.796 2°37.277 9.2 358 14.8 101230 89
2008-05-29 09:26:05 51°19.804 2°37.261 9.2 359 14.8 101230 89
2008-05-29 09:26:09 51°19.81 2°37.251 9.6 1 14.8 101230 89
2008-05-29 09:26:14 51°19.816 2°37.239 9.4 359 14.8 101230 89
2008-05-29 09:26:19 51°19.823 2°37.229 9.1 4 14.8 101230 89
2008-05-29 09:26:25 51°19.83 2°37.217 8.5 2 14.8 101230 89
2008-05-29 09:26:29 51°19.834 2°37.209 8.4 5 14.8 101240 89
2008-05-29 09:26:34 51°19.839 2°37.2 8.6 3 14.8 101240 89
2008-05-29 09:26:39 51°19.844 2°37.192 8.2 3 14.7 101240 89
2008-05-29 09:26:45 51°19.849 2°37.182 7.3 5 14.7 101240 89
2008-05-29 09:26:49 51°19.853 2°37.176 8.2 7 14.7 101240 88
2008-05-29 09:26:54 51°19.857 2°37.169 8 5 14.7 101240 88
2008-05-29 09:26:59 51°19.861 2°37.162 7.2 7 14.7 101240 88
2008-05-29 09:27:05 51°19.866 2°37.153 7.4 5 14.7 101240 88
2008-05-29 09:27:09 51°19.869 2°37.148 6.2 6 14.7 101240 88
2008-05-29 09:27:14 51°19.872 2°37.142 7.2 6 14.7 101240 88
2008-05-29 09:27:19 51°19.876 2°37.136 7.6 6 14.7 101230 88
2008-05-29 09:27:25 51°19.88 2°37.128 6.8 7 14.7 101230 88
2008-05-29 09:27:29 51°19.883 2°37.124 7.5 6 14.7 101240 88
2008-05-29 09:27:34 51°19.887 2°37.118 7 7 14.7 101240 88
2008-05-29 09:27:39 51°19.89 2°37.113 8.2 9 14.8 101240 88
2008-05-29 09:27:44 51°19.893 2°37.107 7.3 8 14.8 101240 88
2008-05-29 09:27:49 51°19.896 2°37.101 7.8 9 14.7 101240 88
2008-05-29 09:27:54 51°19.9 2°37.096 6.9 10 14.7 101240 88
2008-05-29 09:27:59 51°19.903 2°37.091 6.8 10 14.7 101240 88
2008-05-29 09:28:05 51°19.907 2°37.086 7.5 8 14.7 101240 88
2008-05-29 09:28:09 51°19.909 2°37.082 8.7 9 14.7 101240 88
2008-05-29 09:28:14 51°19.912 2°37.077 6.1 7 14.7 101240 88
2008-05-29 09:28:19 51°19.915 2°37.073 5.2 8 14.8 101240 89
2008-05-29 09:28:24 51°19.918 2°37.068 6.9 5 14.8 101240 89
2008-05-29 09:28:29 51°19.921 2°37.064 7.8 5 14.8 101240 89
2008-05-29 09:28:34 51°19.924 2°37.06 6.7 8 14.8 101240 89
2008-05-29 09:28:39 51°19.927 2°37.056 7 6 14.7 101240 88
2008-05-29 09:28:45 51°19.931 2°37.051 7.2 7 14.7 101240 88
2008-05-29 09:28:49 51°19.934 2°37.048 6.6 7 14.7 101240 88
2008-05-29 09:28:54 51°19.937 2°37.043 7.7 6 14.7 101240 88
2008-05-29 09:28:59 51°19.941 2°37.039 6.9 8 14.7 101240 88
2008-05-29 09:29:05 51°19.945 2°37.034 6 6 14.7 101240 88
2008-05-29 09:29:09 51°19.947 2°37.03 6.2 3 14.7 101240 88
2008-05-29 09:29:14 51°19.951 2°37.026 5.8 6 14.7 101240 88
2008-05-29 09:29:19 51°19.954 2°37.021 7.8 2 14.7 101240 88
2008-05-29 09:29:25 51°19.959 2°37.015 6.4 4 14.7 101240 88
2008-05-29 09:29:29 51°19.962 2°37.011 7.3 4 14.7 101240 88
2008-05-29 09:29:34 51°19.965 2°37.007 6.3 5 14.7 101240 88
2008-05-29 09:29:39 51°19.969 2°37.002 6.4 6 14.7 101240 88
2008-05-29 09:29:45 51°19.974 2°36.996 6.8 3 14.7 101240 88
2008-05-29 09:29:49 51°19.977 2°36.992 7.6 2 14.7 101230 88
2008-05-29 09:29:54 51°19.981 2°36.987 6 3 14.7 101230 88
2008-05-29 09:29:59 51°19.985 2°36.983 7.3 3 14.8 101240 88
2008-05-29 09:30:04 51°19.989 2°36.978 6.8 5 14.8 101240 88
2008-05-29 09:30:09 51°19.993 2°36.973 6.5 6 14.8 101240 88
2008-05-29 09:30:14 51°19.997 2°36.967 6.7 5 14.8 101240 88
2008-05-29 09:30:19 51°20.001 2°36.962 6.8 5 14.8 101240 88
2008-05-29 09:30:25 51°20.005 2°36.956 8.8 7 14.8 101240 88
2008-05-29 09:30:29 51°20.009 2°36.951 6.5 7 14.8 101240 88
2008-05-29 09:30:34 51°20.013 2°36.946 8.1 8 14.8 101240 88
2008-05-29 09:30:39 51°20.016 2°36.94 9.1 10 14.8 101240 88
2008-05-29 09:30:45 51°20.02 2°36.934 7.3 6 14.8 101240 88
2008-05-29 09:30:49 51°20.022 2°36.93 7.8 10 14.8 101240 88
2008-05-29 09:30:54 51°20.025 2°36.925 8.1 10 14.8 101240 88
2008-05-29 09:31:00 51°20.029 2°36.92 7.2 11 14.8 101240 88
2008-05-29 09:31:05 51°20.032 2°36.915 7.9 11 14.8 101240 88
2008-05-29 09:31:09 51°20.034 2°36.912 9.1 10 14.8 101240 88
2008-05-29 09:31:14 51°20.036 2°36.908 8 10 14.8 101240 88
2008-05-29 09:31:19 51°20.039 2°36.904 8.6 8 14.8 101240 88
2008-05-29 09:31:25 51°20.041 2°36.9 8.2 8 14.8 101240 88
2008-05-29 09:31:29 51°20.043 2°36.897 8.4 8 14.8 101240 88
2008-05-29 09:31:34 51°20.045 2°36.894 8.7 10 14.8 101240 88
2008-05-29 09:31:39 51°20.047 2°36.892 7.9 9 14.8 101240 88
2008-05-29 09:31:45 51°20.05 2°36.889 8 7 14.8 101240 88
2008-05-29 09:31:49 51°20.051 2°36.887 8.6 10 14.8 101240 88
2008-05-29 09:31:54 51°20.053 2°36.885 7.7 7 14.8 101240 88
2008-05-29 09:31:59 51°20.054 2°36.884 7.4 7 14.8 101240 88
2008-05-29 09:32:05 51°20.056 2°36.882 5.6 9 14.8 101240 88
2008-05-29 09:32:09 51°20.057 2°36.881 6.9 6 14.7 101240 88
2008-05-29 09:32:14 51°20.058 2°36.88 5.5 6 14.7 101240 88
2008-05-29 09:32:19 51°20.06 2°36.879 6.4 7 14.8 101250 88
2008-05-29 09:32:24 51°20.061 2°36.878 6.9 8 14.8 101250 88
2008-05-29 09:32:29 51°20.062 2°36.878 6.9 6 14.8 101250 88
2008-05-29 09:32:34 51°20.062 2°36.877 6.6 8 14.8 101250 88
2008-05-29 09:32:39 51°20.063 2°36.877 6.6 5 14.8 101250 88
2008-05-29 09:32:45 51°20.064 2°36.877 6.8 6 14.8 101250 88
2008-05-29 09:32:49 51°20.064 2°36.876 7.4 7 14.8 101240 88
2008-05-29 09:32:54 51°20.064 2°36.876 6.8 7 14.8 101240 88
2008-05-29 09:32:59 51°20.065 2°36.876 7.2 6 14.7 101250 88
2008-05-29 09:33:05 51°20.065 2°36.876 6.6 7 14.7 101250 88
2008-05-29 09:33:09 51°20.066 2°36.876 7.3 8 14.8 101250 88
2008-05-29 09:33:14 51°20.066 2°36.876 6.6 11 14.8 101250 88
2008-05-29 09:33:19 51°20.066 2°36.876 7.2 9 14.8 101250 88
2008-05-29 09:33:25 51°20.066 2°36.876 6 8 14.8 101250 88
2008-05-29 09:33:29 51°20.066 2°36.876 6 7 14.8 101250 88
2008-05-29 09:33:34 51°20.066 2°36.876 7.4 12 14.8 101250 88
2008-05-29 09:33:39 51°20.066 2°36.876 7 6 14.8 101250 88
2008-05-29 09:33:45 51°20.066 2°36.876 6.6 7 14.8 101250 88
2008-05-29 09:33:49 51°20.066 2°36.876 6 9 14.8 101250 88
2008-05-29 09:33:54 51°20.066 2°36.876 7.1 12 14.8 101250 88
2008-05-29 09:33:59 51°20.066 2°36.876 6.6 14 14.8 101250 88